Погода в Березовке

Россия / Липецкая область     53°26′05″N   38°53′07″E
темп.,
°C
ветер,
м/с
пор.,
м/с
влажн.,
%
обл.,
%
осадки,
мм/ч
давл.,
гПа
погр.,
м
6 марта, сб
сб600:00−9сз239247 0.0 101521
03:00−11сз129045 0.0 101721
06:00−12зсз119031 0.0 101621
09:00−9с119046 0.0 101755
12:00−7ссз2391100 0.1 1017250
15:00−5ссз3592100 0.2 1016495
18:00−9сз349158 0.1 101632
21:00−11з349029 0.1 101757
7 марта, вс
вс700:00−12з46920 0.0 101786
03:00−12зюз47910 0.0 1016134
06:00−12юз612881 0.0 1013256
09:00−8юз8168447 0.0 1010648
12:00−5юз111781100 0.0 1005926
15:00−3юз122093100 1.2 9991347
18:00−5зсз101874100 1.8 9981090
21:00−8з7177667 1.8 1001500
8 марта, пн
пн800:00−9зюз714810 0.0 1002291
03:00−10юз716782 0.0 1000350
06:00−6зюз8159167 0.1 997951
09:00−10з8158364 0.2 999745
12:00−7з7118899 0.0 1002661
15:00−6зсз71080100 0.1 1004924
18:00−8з6148683 0.0 1005493
21:00−10з6139275 0.0 1008401
9 марта, вт
вт900:00−10зсз5119394 0.0 1010370
03:00−12зсз489592 0.1 1012244
06:00−14зсз489690 0.1 1014175
09:00−14сз489471 0.1 1016321
12:00−12сз469079 0.0 1017518
15:00−11зсз578989 0.1 1018606
18:00−14зсз4793100 0.0 1019149
21:00−16з349468 0.0 102054
10 марта, ср
ср1000:00−15зюз349257 0.0 101974
03:00−10зюз5129563 0.8 1017577
06:00−7зсз71493100 0.8 1017722
09:00−7зсз61193100 1.1 1017749
12:00−6зсз4794100 0.6 1017598
15:00−5з6986100 1.1 1017901
18:00−6зюз41087100 0.1 1016295
21:00−10зюз479068 0.1 1017116